Time,TemperatureF,DewpointF,PressureIn,WindDirection,WindDirectionDegrees,WindSpeedMPH,WindSpeedGustMPH,Humidity,HourlyPrecipIn,Conditions,Clouds,dailyrainin,SoftwareType,DateUTC
2013-07-22 00:11:00,65.0,62.0,-100.00,SSW,202,1.0,2.0,90,-99.99,,,-99.99,,2013-07-22 07:11:00,
2013-07-22 00:22:00,65.0,62.0,-100.00,SSW,196,1.0,2.0,90,-99.99,,,-99.99,,2013-07-22 07:22:00,
2013-07-22 00:33:00,65.0,62.0,-100.00,SW,223,1.0,2.0,90,-99.99,,,-99.99,,2013-07-22 07:33:00,
2013-07-22 00:43:00,65.0,62.0,-100.00,SSW,203,1.0,2.0,90,-99.99,,,-99.99,,2013-07-22 07:43:00,
2013-07-22 00:52:00,65.0,62.0,-100.00,SSW,210,1.0,1.0,90,-99.99,,,-99.99,,2013-07-22 07:52:00,
2013-07-22 01:11:00,65.0,62.0,-100.00,SW,223,1.0,2.0,90,-99.99,,,-99.99,,2013-07-22 08:11:00,
2013-07-22 01:22:00,65.0,62.0,-100.00,South,191,2.0,3.0,90,-99.99,,,-99.99,,2013-07-22 08:22:00,
2013-07-22 01:32:00,65.0,62.0,-100.00,SSW,211,2.0,3.0,90,-99.99,,,-99.99,,2013-07-22 08:32:00,
2013-07-22 01:43:00,65.0,62.0,-100.00,SSW,198,1.0,2.0,90,-99.99,,,-99.99,,2013-07-22 08:43:00,
2013-07-22 01:52:00,65.0,62.0,-100.00,SSW,198,1.0,2.0,90,-99.99,,,-99.99,,2013-07-22 08:52:00,
2013-07-22 02:02:00,65.0,62.0,-100.00,WSW,251,1.0,2.0,90,-99.99,,,-99.99,,2013-07-22 09:02:00,
2013-07-22 02:22:00,65.0,62.0,-100.00,SSW,195,1.0,2.0,90,-99.99,,,-99.99,,2013-07-22 09:22:00,
2013-07-22 02:33:00,65.0,62.0,-100.00,SSE,167,1.0,2.0,90,-99.99,,,-99.99,,2013-07-22 09:33:00,
2013-07-22 02:52:00,65.0,62.0,-100.00,South,180,1.0,2.0,90,-99.99,,,-99.99,,2013-07-22 09:52:00,
2013-07-22 03:11:00,65.0,62.0,-100.00,SSW,194,1.0,3.0,90,-99.99,,,-99.99,,2013-07-22 10:11:00,
2013-07-22 03:22:00,65.0,62.0,-100.00,South,187,1.0,2.0,91,-99.99,,,-99.99,,2013-07-22 10:22:00,
2013-07-22 03:32:00,65.0,62.0,-100.00,SSE,162,1.0,2.0,91,-99.99,,,-99.99,,2013-07-22 10:32:00,
2013-07-22 03:43:00,65.0,62.0,-100.00,SSE,168,0.0,1.0,91,-99.99,,,-99.99,,2013-07-22 10:43:00,
2013-07-22 03:52:00,65.0,62.0,-100.00,ENE,67,1.0,2.0,91,-99.99,,,-99.99,,2013-07-22 10:52:00,
2013-07-22 04:11:00,64.0,61.0,-100.00,East,80,1.0,2.0,91,-99.99,,,-99.99,,2013-07-22 11:11:00,
2013-07-22 04:32:00,65.0,62.0,-100.00,SSW,201,2.0,3.0,91,-99.99,,,-99.99,,2013-07-22 11:32:00,
2013-07-22 04:52:00,65.0,62.0,-100.00,SSW,194,2.0,2.0,91,-99.99,,,-99.99,,2013-07-22 11:52:00,
2013-07-22 05:11:00,65.0,62.0,-100.00,SSE,149,1.0,2.0,91,-99.99,,,-99.99,,2013-07-22 12:11:00,
2013-07-22 05:43:00,63.0,60.0,-100.00,NE,51,2.0,3.0,91,-99.99,,,-99.99,,2013-07-22 12:43:00,
2013-07-22 05:52:00,63.0,60.0,-100.00,NE,51,2.0,3.0,91,-99.99,,,-99.99,,2013-07-22 12:52:00,
2013-07-22 06:01:00,63.0,61.0,-100.00,NNE,29,2.0,3.0,92,-99.99,,,-99.99,,2013-07-22 13:01:00,
2013-07-22 06:11:00,63.0,61.0,-100.00,East,81,1.0,2.0,92,-99.99,,,-99.99,,2013-07-22 13:11:00,
2013-07-22 06:32:00,62.0,60.0,-100.00,NE,50,3.0,4.0,92,-99.99,,,-99.99,,2013-07-22 13:32:00,
2013-07-22 06:53:00,62.0,60.0,-100.00,NE,43,3.0,5.0,92,-99.99,,,-99.99,,2013-07-22 13:53:00,
2013-07-22 07:22:00,63.0,60.0,-100.00,NE,48,3.0,4.0,91,-99.99,,,-99.99,,2013-07-22 14:22:00,
2013-07-22 07:32:00,63.0,60.0,-100.00,NE,48,3.0,4.0,91,-99.99,,,-99.99,,2013-07-22 14:32:00,
2013-07-22 07:53:00,64.0,61.0,-100.00,NE,50,2.0,3.0,90,-99.99,,,-99.99,,2013-07-22 14:53:00,
2013-07-22 08:01:00,66.0,62.0,-100.00,NW,308,1.0,2.0,88,-99.99,,,-99.99,,2013-07-22 15:01:00,
2013-07-22 08:11:00,67.0,63.0,-100.00,NNE,20,1.0,3.0,87,-99.99,,,-99.99,,2013-07-22 15:11:00,
2013-07-22 08:32:00,68.0,63.0,-100.00,SW,232,1.0,4.0,83,-99.99,,,-99.99,,2013-07-22 15:32:00,
2013-07-22 08:52:00,69.0,63.0,-100.00,SW,231,3.0,6.0,80,-99.99,,,-99.99,,2013-07-22 15:52:00,
2013-07-22 09:01:00,70.0,63.0,-100.00,SSW,192,3.0,5.0,79,-99.99,,,-99.99,,2013-07-22 16:01:00,
2013-07-22 09:11:00,70.0,63.0,-100.00,SSW,203,4.0,6.0,78,-99.99,,,-99.99,,2013-07-22 16:11:00,
2013-07-22 09:21:00,70.0,63.0,-100.00,SSW,203,4.0,6.0,78,-99.99,,,-99.99,,2013-07-22 16:21:00,
2013-07-22 09:32:00,72.0,62.0,-100.00,SW,228,3.0,6.0,72,-99.99,,,-99.99,,2013-07-22 16:32:00,
2013-07-22 09:52:00,72.0,62.0,-100.00,SW,223,4.0,7.0,72,-99.99,,,-99.99,,2013-07-22 16:52:00,
2013-07-22 10:01:00,72.0,62.0,-100.00,SW,214,5.0,7.0,71,-99.99,,,-99.99,,2013-07-22 17:01:00,
2013-07-22 10:11:00,72.0,62.0,-100.00,SW,214,5.0,7.0,71,-99.99,,,-99.99,,2013-07-22 17:11:00,
2013-07-22 10:23:00,73.0,61.0,-100.00,WSW,237,2.0,6.0,67,-99.99,,,-99.99,,2013-07-22 17:23:00,
2013-07-22 10:32:00,73.0,61.0,-100.00,WSW,237,2.0,6.0,67,-99.99,,,-99.99,,2013-07-22 17:32:00,
2013-07-22 10:42:00,75.0,62.0,-100.00,SSW,202,4.0,7.0,63,-99.99,,,-99.99,,2013-07-22 17:42:00,
2013-07-22 10:52:00,76.0,62.0,-100.00,SSW,204,3.0,7.0,61,-99.99,,,-99.99,,2013-07-22 17:52:00,
2013-07-22 11:12:00,76.0,62.0,-100.00,SW,222,4.0,8.0,61,-99.99,,,-99.99,,2013-07-22 18:12:00,
2013-07-22 11:33:00,76.0,62.0,-100.00,SW,230,6.0,10.0,61,-99.99,,,-99.99,,2013-07-22 18:33:00,
2013-07-22 11:53:00,76.0,62.0,-100.00,SW,222,6.0,11.0,61,-99.99,,,-99.99,,2013-07-22 18:53:00,
2013-07-22 12:02:00,76.0,62.0,-100.00,SW,229,6.0,12.0,62,-99.99,,,-99.99,,2013-07-22 19:02:00,
2013-07-22 12:12:00,76.0,62.0,-100.00,SW,229,6.0,12.0,62,-99.99,,,-99.99,,2013-07-22 19:12:00,
2013-07-22 12:22:00,76.0,62.0,-100.00,SW,229,7.0,14.0,63,-99.99,,,-99.99,,2013-07-22 19:22:00,
2013-07-22 12:32:00,76.0,62.0,-100.00,SW,220,7.0,12.0,63,-99.99,,,-99.99,,2013-07-22 19:32:00,
2013-07-22 12:43:00,75.0,62.0,-100.00,SW,219,7.0,11.0,63,-99.99,,,-99.99,,2013-07-22 19:43:00,
2013-07-22 12:53:00,75.0,62.0,-100.00,SW,219,7.0,11.0,63,-99.99,,,-99.99,,2013-07-22 19:53:00,
2013-07-22 13:02:00,75.0,62.0,-100.00,SW,221,8.0,13.0,64,-99.99,,,-99.99,,2013-07-22 20:02:00,
2013-07-22 13:32:00,74.0,62.0,-100.00,WSW,237,9.0,14.0,66,-99.99,,,-99.99,,2013-07-22 20:32:00,
2013-07-22 13:52:00,74.0,62.0,-100.00,WSW,237,9.0,14.0,66,-99.99,,,-99.99,,2013-07-22 20:52:00,
2013-07-22 14:01:00,74.0,62.0,-100.00,SW,236,9.0,14.0,67,-99.99,,,-99.99,,2013-07-22 21:01:00,
2013-07-22 14:11:00,74.0,62.0,-100.00,WSW,237,8.0,13.0,66,-99.99,,,-99.99,,2013-07-22 21:11:00,
2013-07-22 14:32:00,75.0,62.0,-100.00,SW,236,8.0,13.0,65,-99.99,,,-99.99,,2013-07-22 21:32:00,
2013-07-22 14:52:00,75.0,62.0,-100.00,SW,235,9.0,13.0,65,-99.99,,,-99.99,,2013-07-22 21:52:00,
2013-07-22 15:01:00,75.0,63.0,-100.00,WSW,237,9.0,15.0,66,-99.99,,,-99.99,,2013-07-22 22:01:00,
2013-07-22 15:32:00,74.0,62.0,-100.00,WSW,238,8.0,14.0,67,-99.99,,,-99.99,,2013-07-22 22:32:00,
2013-07-22 15:52:00,74.0,62.0,-100.00,SW,229,9.0,13.0,66,-99.99,,,-99.99,,2013-07-22 22:52:00,
2013-07-22 16:01:00,74.0,62.0,-100.00,SW,229,9.0,13.0,66,-99.99,,,-99.99,,2013-07-22 23:01:00,
2013-07-22 16:11:00,74.0,63.0,-100.00,WSW,237,10.0,15.0,68,-99.99,,,-99.99,,2013-07-22 23:11:00,
2013-07-22 16:22:00,74.0,63.0,-100.00,SW,236,8.0,13.0,68,-99.99,,,-99.99,,2013-07-22 23:22:00,
2013-07-22 16:32:00,74.0,62.0,-100.00,SW,235,7.0,14.0,67,-99.99,,,-99.99,,2013-07-22 23:32:00,
2013-07-22 16:42:00,74.0,62.0,-100.00,WSW,243,8.0,13.0,67,-99.99,,,-99.99,,2013-07-22 23:42:00,
2013-07-22 16:52:00,74.0,62.0,-100.00,WSW,243,8.0,13.0,67,-99.99,,,-99.99,,2013-07-22 23:52:00,
2013-07-22 17:01:00,73.0,62.0,-100.00,SW,228,9.0,14.0,68,-99.99,,,-99.99,,2013-07-23 00:01:00,
2013-07-22 17:11:00,73.0,62.0,-100.00,SW,228,9.0,14.0,68,-99.99,,,-99.99,,2013-07-23 00:11:00,
2013-07-22 17:22:00,73.0,62.0,-100.00,SW,234,9.0,13.0,69,-99.99,,,-99.99,,2013-07-23 00:22:00,
2013-07-22 17:32:00,72.0,63.0,-100.00,SW,230,8.0,13.0,73,-99.99,,,-99.99,,2013-07-23 00:32:00,
2013-07-22 17:52:00,72.0,63.0,-100.00,SW,231,6.0,10.0,74,-99.99,,,-99.99,,2013-07-23 00:52:00,
2013-07-22 18:01:00,72.0,63.0,-100.00,SW,229,6.0,12.0,73,-99.99,,,-99.99,,2013-07-23 01:01:00,
2013-07-22 18:11:00,72.0,63.0,-100.00,WSW,242,7.0,11.0,73,-99.99,,,-99.99,,2013-07-23 01:11:00,
2013-07-22 18:32:00,71.0,62.0,-100.00,SW,224,5.0,8.0,74,-99.99,,,-99.99,,2013-07-23 01:32:00,
2013-07-22 18:53:00,71.0,62.0,-100.00,SW,236,6.0,9.0,74,-99.99,,,-99.99,,2013-07-23 01:53:00,
2013-07-22 19:01:00,70.0,63.0,-100.00,WSW,238,6.0,9.0,78,-99.99,,,-99.99,,2013-07-23 02:01:00,
2013-07-22 19:11:00,70.0,63.0,-100.00,WSW,238,6.0,9.0,78,-99.99,,,-99.99,,2013-07-23 02:11:00,
2013-07-22 19:33:00,69.0,63.0,-100.00,WSW,238,5.0,8.0,80,-99.99,,,-99.99,,2013-07-23 02:33:00,
2013-07-22 19:43:00,68.0,62.0,-100.00,WSW,247,5.0,8.0,81,-99.99,,,-99.99,,2013-07-23 02:43:00,
2013-07-22 19:52:00,68.0,62.0,-100.00,WSW,247,5.0,8.0,81,-99.99,,,-99.99,,2013-07-23 02:52:00,
2013-07-22 20:01:00,68.0,62.0,-100.00,SW,235,3.0,6.0,82,-99.99,,,-99.99,,2013-07-23 03:01:00,
2013-07-22 20:11:00,68.0,62.0,-100.00,WSW,240,3.0,5.0,82,-99.99,,,-99.99,,2013-07-23 03:11:00,
2013-07-22 20:22:00,68.0,62.0,-100.00,WSW,240,3.0,5.0,82,-99.99,,,-99.99,,2013-07-23 03:22:00,
2013-07-22 20:52:00,68.0,63.0,-100.00,SSW,204,1.0,2.0,83,-99.99,,,-99.99,,2013-07-23 03:52:00,
2013-07-22 21:01:00,68.0,63.0,-100.00,South,188,3.0,4.0,83,-99.99,,,-99.99,,2013-07-23 04:01:00,
2013-07-22 21:11:00,68.0,63.0,-100.00,South,188,3.0,4.0,83,-99.99,,,-99.99,,2013-07-23 04:11:00,
2013-07-22 21:21:00,67.0,62.0,-100.00,South,189,3.0,4.0,83,-99.99,,,-99.99,,2013-07-23 04:21:00,
2013-07-22 21:42:00,67.0,62.0,-100.00,South,182,2.0,4.0,85,-99.99,,,-99.99,,2013-07-23 04:42:00,
2013-07-22 21:53:00,66.0,62.0,-100.00,South,179,3.0,5.0,86,-99.99,,,-99.99,,2013-07-23 04:53:00,
2013-07-22 22:11:00,66.0,62.0,-100.00,SSE,168,2.0,3.0,87,-99.99,,,-99.99,,2013-07-23 05:11:00,
2013-07-22 22:22:00,66.0,62.0,-100.00,SSW,199,2.0,3.0,87,-99.99,,,-99.99,,2013-07-23 05:22:00,
2013-07-22 22:33:00,66.0,62.0,-100.00,SSW,197,1.0,2.0,88,-99.99,,,-99.99,,2013-07-23 05:33:00,
2013-07-22 22:43:00,66.0,62.0,-100.00,NNW,334,1.0,2.0,87,-99.99,,,-99.99,,2013-07-23 05:43:00,
2013-07-22 22:52:00,66.0,62.0,-100.00,NNW,334,1.0,2.0,87,-99.99,,,-99.99,,2013-07-23 05:52:00,
2013-07-22 23:01:00,66.0,62.0,-100.00,SW,220,2.0,3.0,88,-99.99,,,-99.99,,2013-07-23 06:01:00,
2013-07-22 23:21:00,65.0,62.0,-100.00,SW,234,2.0,4.0,89,-99.99,,,-99.99,,2013-07-23 06:21:00,
2013-07-22 23:52:00,65.0,62.0,-100.00,WSW,248,1.0,2.0,90,-99.99,,,-99.99,,2013-07-23 06:52:00,